Torna al catalogo

OPS 9327

IDSCS 14

LostMilitareMEO
NORAD 2654·PAYLOAD·🇺🇸 United States

Lanciato Jan 18, 1967 da Cape Canaveral Space Force Station

Loading…

Prossimi Passaggi (prossime 24 ore)

TLE

ObsoletoSource: Space-Track

Epoca: Jul 28, 2026, 03:58 UTC

1 02654U 67003G   26209.16552884 -.00000110  00000-0  00000-0 0  9994
2 02654   8.2357  46.6917 0057212  51.6861 137.5002  1.07511668139917

Traccia OPS 9327 in tempo reale con AllMySat

Download on the App Store